Location: Caltech
(34.1382°N, 118.1253°W)
Time: 01:58:27
(UTC-07:00)

Iridium 72 - Visible Passes

Search period start: 25 July 2014 00:00
Search period end: 04 August 2014 00:00
Orbit: 776 x 779 km, 86.4° (Epoch: 24 July)

Date Brightness Start Highest point End Pass type
(mag) Time Alt. Az. Time Alt. Az. Time Alt. Az.
25 Jul 7.8 00:16:23 16° NE 00:16:23 16° NE 00:17:50 10° NE visible
25 Jul 7.4 01:56:51 23° NW 01:56:51 23° NW 01:59:09 10° NNW visible
26 Jul 7.2 01:23:28 29° NNW 01:23:28 29° NNW 01:26:00 10° N visible
27 Jul 7.3 00:50:05 27° NNE 00:50:05 27° NNE 00:52:27 10° N visible
28 Jul 7.7 00:16:41 19° NE 00:16:41 19° NE 00:18:29 10° NNE visible
28 Jul 7.8 01:57:10 17° NW 01:57:10 17° NW 01:58:45 10° NNW visible
28 Jul 8.0 23:43:17 12° NE 23:43:17 12° NE 23:43:50 10° NE visible
29 Jul 7.5 01:23:45 24° NNW 01:23:45 24° NNW 01:25:56 10° NNW visible
30 Jul 7.4 00:50:21 27° N 00:50:21 27° N 00:52:37 10° N visible
31 Jul 7.5 00:16:56 23° NNE 00:16:56 23° NNE 00:18:55 10° NNE visible
31 Jul 8.1 01:57:24 12° NW 01:57:24 12° NW 01:58:00 10° NW visible
31 Jul 7.8 23:43:31 15° NE 23:43:31 15° NE 23:44:44 10° NNE visible
01 Aug 7.8 01:23:59 19° NW 01:23:59 19° NW 01:25:41 10° NNW visible
02 Aug 7.6 00:50:34 24° NNW 00:50:34 24° NNW 00:52:38 10° N visible
03 Aug 7.5 00:17:08 24° N 00:17:08 24° N 00:19:10 10° N visible
03 Aug 7.7 23:43:42 19° NNE 23:43:42 19° NNE 23:45:18 10° NNE visible
